Flag for Algeria Weather past 2 weeks in Constantine, Algeria

Now
95 °F

Sunny.


Feels Like: 92 °F
Forecast: 61 / 97 °F
Wind: 10 mph from North

Location: Constantine Airport

Current Time: May 3, 2015 at 4:57:21 PM

Latest Report: May 3, 2015 at 4:00 PM


Visibility: 10 mi

Pressure: 29.98 "Hg

Humidity: 22%

Dew point: 50 °F

Location of ConstantineLocation

Historic Weather in Constantine — Graph

°F

Constantine temperature yesterday

Maximum temperature yesterday: 88 °F (at 1:00 PM)
Minimum temperature yesterday: 55 °F (at 4:30 AM)
Average temperature yesterday: 72 °F

Past Weeks' High & Low Weather Summary

 TemperatureHumidityPressure
High99 °F (May 3, 2:00 PM)94% (Apr 19, 5:30 AM)30.24 "Hg (Apr 19, 5:30 AM)
Low43 °F (Apr 21, 3:30 AM)15% (May 3, 2:30 PM)29.80 "Hg (Apr 26, 7:00 PM)
Average64 °F62%30.07 "Hg
* Reported Apr 18 3:00 PM — May 3 3:30 PM, Constantine, Weather by CustomWeather, © 2015

Note: Actual official high and low records may vary slightly from our data, if they occured in-between our weather recording intervals... More about our weather records

Advertising

Constantine weather history for previous 24 hours

 ConditionsComfort  
Time TempWeatherWind HumidityBarometerVisibility
3:30 PM
Sun, May 3
97 °FSunny.8 mph22%30.01 "Hg10 mi
3:00 PM97 °FSunny.14 mph16%30.01 "Hg10 mi
2:30 PM99 °FSunny.16 mph15%30.01 "Hg10 mi
2:00 PM99 °FSunny.16 mph16%30.01 "Hg10 mi
1:30 PM97 °FSunny.18 mph16%30.01 "Hg10 mi
1:00 PM97 °FSunny.16 mph16%30.01 "Hg10 mi
12:30 PM95 °FSunny.18 mph16%30.04 "Hg10 mi
12:00 PM95 °FSunny.20 mph19%30.04 "Hg10 mi
11:30 AM91 °FSunny.7 mph21%30.04 "Hg10 mi
11:00 AM90 °FPassing clouds.10 mph22%30.04 "HgN/A
10:30 AM88 °FSunny.6 mph24%30.07 "Hg10 mi
10:00 AM82 °FPassing clouds.5 mph35%30.07 "HgN/A
9:30 AM81 °FPassing clouds.5 mph42%30.07 "HgN/A
9:00 AM77 °FSunny.5 mph47%30.07 "Hg10 mi
8:30 AM73 °FSunny.2 mph53%30.04 "Hg10 mi
8:00 AM68 °FSunny.No wind56%30.04 "Hg10 mi
7:30 AM66 °FSunny.No wind64%30.04 "Hg10 mi
7:00 AM64 °FSunny.No wind73%30.04 "Hg10 mi
6:30 AM59 °FSunny.No wind77%30.04 "Hg10 mi
6:00 AM57 °FSunny.No wind77%30.01 "Hg10 mi
5:30 AM59 °FClear.No wind77%30.01 "Hg10 mi
5:00 AM59 °FClear.No wind77%30.01 "Hg10 mi
4:30 AM61 °FClear.No wind72%30.01 "Hg10 mi
3:30 AM59 °FClear.No wind72%30.01 "Hg10 mi
3:00 AM61 °FClear.No wind72%30.04 "Hg10 mi
2:30 AM64 °FClear.No wind68%30.04 "Hg10 mi
2:00 AM64 °FClear.No wind68%30.04 "Hg10 mi
1:00 AM64 °FClear.No wind68%30.04 "Hg10 mi
12:30 AM63 °FClear.5 mph73%30.07 "Hg10 mi
12:00 AM63 °FClear.5 mph73%30.07 "Hg10 mi
11:30 PM
Sat, May 2
63 °FClear.3 mph73%30.07 "Hg10 mi
11:00 PM64 °FClear.3 mph68%30.07 "Hg10 mi
10:30 PM66 °FClear.5 mph64%30.09 "Hg10 mi
10:00 PM66 °FClear.5 mph64%30.09 "Hg10 mi
9:30 PM66 °FClear.No wind64%30.09 "Hg10 mi
9:00 PM70 °FClear.No wind57%30.07 "Hg10 mi
8:30 PM72 °FClear.No wind57%30.07 "Hg10 mi
8:00 PM73 °FClear.6 mph53%30.07 "Hg10 mi
7:30 PM75 °FClear.2 mph47%30.07 "Hg10 mi
7:00 PM79 °FSunny.3 mph48%30.04 "Hg10 mi
6:30 PM81 °FSunny.9 mph39%30.04 "Hg10 mi
6:00 PM84 °FSunny.9 mph35%30.04 "Hg10 mi
5:30 PM86 °FSunny.12 mph33%30.04 "Hg10 mi
5:00 PM86 °FSunny.12 mph33%30.04 "Hg10 mi
4:30 PM86 °FSunny.14 mph33%30.01 "Hg10 mi
4:00 PM86 °FSunny.14 mph33%30.01 "Hg10 mi
Weather by CustomWeather, © 2015

See weather overviewHow to use our weather pages